Torna al catalogo

NOAA 17 DEB

AttivoSSO
NORAD 49479·DEBRIS·🇺🇸 United States

Lanciato Jun 24, 2002 da Vandenberg Space Force Base

Loading…

Prossimi Passaggi (prossime 24 ore)

TLE

AggiornatoSource: Space-Track

Epoca: Sep 11, 2026, 14:06 UTC

1 49479U 02032DH  26254.58796453  .00000475  00000-0  13933-3 0  9994
2 49479  98.8060 302.5431 0063360 124.8278 235.8895 14.47528388277392

Traccia NOAA 17 DEB in tempo reale con AllMySat

Download on the App Store